Theta_e
316 314 312 308 309 306 303 303 301 300 299 298 297 296 295 295 295 295 295 295 295 295 295 294 294 292 293 293 292 291 290 289 289 288 288 288 287 286 286 286 286 285 285
314 311 308 307 303 301 301 300 298 298 297 297 296 296 295 295 295 295 295 293 291 291 291 291 292 291 291 290 290 289 288 288 287 286 286 284 284 283 284 284 284 284 283
309 308 304 301 301 300 299 298 298 298 297 296 296 295 295 295 295 295 295 292 291 290 290 290 290 290 290 289 288 288 287 286 285 283 283 283 282 282 282 282 282 283 283
307 302 300 300 300 298 298 298 297 296 296 296 296 295 295 295 295 295 293 292 291 290 290 290 290 289 288 287 287 286 285 284 284 283 282 281 281 281 281 282 282 282 282
302 300 300 298 297 297 296 295 294 294 294 295 295 295 295 295 295 293 292 292 291 290 290 290 288 288 287 287 286 285 285 284 283 282 280 280 281 281 281 282 282 282 282
300 299 298 297 295 293 293 293 292 292 294 294 295 295 295 295 294 291 291 291 291 291 289 288 288 287 287 286 285 285 284 283 282 280 280 280 280 281 282 281 281 280 280
299 297 295 294 294 294 294 292 292 294 294 294 295 294 294 293 293 290 290 290 290 289 287 287 287 287 286 285 285 285 284 282 280 279 280 280 280 280 280 280 280 280 281
297 295 296 295 295 294 293 293 293 294 294 294 293 293 293 292 292 290 291 290 289 288 287 286 286 286 285 285 284 283 283 281 280 280 280 280 280 279 280 280 280 281 282
295 296 298 295 294 292 292 293 293 293 292 291 291 292 292 292 291 289 289 289 289 288 287 286 284 285 284 284 284 283 282 281 280 279 278 279 279 279 280 280 281 281 281
296 299 294 294 292 292 293 293 293 292 292 292 291 292 291 291 289 288 289 288 288 287 286 285 284 284 283 283 283 282 281 280 280 280 279 279 279 279 279 280 280 281 281
297 295 294 293 291 292 292 292 292 292 292 292 291 291 291 289 287 287 287 288 287 286 285 284 283 283 283 283 282 281 280 280 280 279 279 278 278 278 279 279 280 281 281
294 293 292 291 292 292 292 290 290 289 291 291 290 290 289 287 287 287 287 287 286 286 285 284 283 283 282 282 281 281 280 280 280 279 279 279 278 278 278 279 279 280 281
292 291 291 291 291 292 291 290 290 290 288 289 289 289 288 288 287 287 286 285 285 285 285 285 283 283 282 282 281 281 281 280 280 279 279 279 278 278 278 278 279 280 281
292 291 291 291 291 291 290 290 290 289 287 287 287 288 288 288 288 287 286 285 285 285 285 284 284 283 283 282 282 281 281 281 280 279 279 279 278 278 277 277 279 280 280
292 292 292 291 290 289 290 290 289 288 287 287 286 286 286 286 287 286 286 285 284 284 285 284 283 283 282 282 282 282 281 280 280 280 279 279 278 277 277 278 279 279 279
292 292 292 291 291 291 290 290 289 288 288 287 287 287 286 286 286 286 285 284 284 283 283 283 282 282 282 282 282 282 281 281 280 280 279 279 278 277 277 277 278 278 278
292 292 292 292 292 291 291 290 290 289 289 288 287 287 286 286 286 285 285 285 284 283 283 282 282 282 281 281 282 281 281 280 280 280 280 278 277 277 277 277 277 277 278
292 292 291 291 291 291 291 291 290 290 290 288 288 287 287 287 286 286 286 285 285 284 283 282 282 282 282 282 282 282 281 281 281 280 279 278 277 277 277 276 276 277 277
290 291 291 291 291 292 292 291 290 290 289 288 288 287 287 288 287 287 286 286 285 285 284 283 283 282 282 283 282 282 282 282 281 280 279 278 278 277 277 276 276 276 277
286 286 286 287 289 289 291 291 290 290 288 288 287 286 286 285 286 287 287 287 286 285 285 285 284 283 282 282 282 282 282 282 281 280 279 278 278 277 277 276 276 276 276
285 285 286 286 285 288 288 289 289 287 286 285 286 286 286 286 286 286 286 287 286 286 285 285 285 284 284 283 283 283 282 282 281 280 279 278 278 278 276 276 276 276 276
283 284 284 284 284 284 287 288 287 286 286 285 285 285 286 286 286 286 286 286 287 286 286 286 285 285 284 284 284 283 283 282 282 281 280 279 278 277 276 277 276 276 276
280 281 282 283 284 285 286 287 286 286 286 285 285 285 285 286 286 285 285 285 286 286 286 286 286 286 285 285 284 283 283 282 282 281 280 279 279 277 277 276 276 276 276
281 282 283 284 284 285 284 284 284 283 283 283 283 282 283 283 283 284 284 285 285 285 285 285 285 285 286 286 285 284 283 282 282 281 281 280 279 278 277 276 275 276 276
279 279 280 280 280 280 280 280 280 279 279 279 279 279 279 280 280 281 281 282 283 284 285 284 284 284 285 285 285 284 283 282 282 281 281 279 278 278 277 276 275 275 276
277 277 277 277 277 277 277 277 277 277 276 276 277 277 277 277 278 279 279 280 282 283 284 284 284 284 284 284 285 284 283 282 281 281 281 279 278 278 277 276 275 276 275
Wind_Speed
25 23 17 12 11 12 11 13 15 18 19 19 21 22 22 20 20 20 22 24 26 25 23 22 22 18 16 17 17 16 17 19 23 31 32 34 36 35 30 27 31 35 36
22 16 10 8 5 7 9 13 14 15 17 19 21 22 23 20 21 24 26 30 27 26 20 19 13 14 13 14 16 17 20 24 28 35 39 38 36 32 28 29 33 33 28
12 9 3 1 6 11 13 13 16 19 21 23 23 24 16 21 24 26 28 27 24 12 11 12 13 13 16 18 19 22 26 29 32 30 31 32 34 28 27 25 24 25 23
9 5 6 8 12 14 15 18 20 20 21 22 23 19 21 24 27 29 29 22 20 15 13 13 13 14 15 18 23 26 27 28 28 29 34 36 32 27 25 26 29 26 28
9 10 11 10 14 15 16 18 18 19 20 21 19 20 23 27 28 30 24 23 18 16 16 14 13 17 20 23 24 24 27 26 29 32 35 34 31 28 28 27 24 27 32
15 10 10 13 14 14 15 17 21 20 19 20 22 25 26 29 29 29 22 26 26 24 16 17 17 19 22 22 23 24 24 28 30 31 28 28 28 25 20 30 34 36 39
13 9 8 10 14 18 21 22 20 18 19 19 18 22 26 28 30 25 23 24 22 13 13 15 18 20 22 22 24 26 27 26 27 24 22 23 27 27 29 30 31 27 28
5 3 8 11 15 20 21 20 18 21 23 24 26 25 27 30 26 27 23 19 15 12 16 19 21 22 24 23 25 25 26 27 24 17 17 23 28 27 20 22 25 27 27
4 5 10 11 20 21 20 20 22 25 24 23 20 21 25 28 29 29 20 17 16 18 20 21 21 22 21 22 23 26 27 24 21 17 17 15 15 14 16 19 21 23 26
7 12 11 19 20 18 19 21 23 24 25 23 23 23 27 31 33 20 18 18 20 20 23 21 18 17 19 21 23 25 26 21 19 16 15 17 12 14 15 16 18 21 24
8 18 20 18 19 19 21 21 23 21 20 25 28 28 29 28 24 20 19 19 20 21 21 18 18 20 21 21 23 23 18 17 16 17 19 21 17 17 15 15 15 17 20
17 16 17 17 15 20 24 25 21 22 24 23 27 30 27 17 16 18 16 20 20 22 21 18 17 19 20 20 19 14 13 15 17 19 20 22 24 20 17 17 16 16 16
14 17 17 17 17 21 25 27 28 30 22 26 25 25 23 19 18 17 18 20 21 23 22 19 17 17 14 19 14 13 14 15 18 19 20 24 26 19 19 18 16 13 13
17 17 16 18 20 23 26 28 30 33 25 21 25 27 22 19 19 17 23 26 23 23 23 19 18 20 22 22 16 15 16 16 17 18 21 23 24 18 19 16 15 14 17
18 18 21 24 24 25 26 28 30 28 23 24 26 24 26 31 31 28 28 26 25 24 21 19 22 24 26 21 16 16 16 16 17 19 21 25 20 20 19 12 12 14 15
23 26 29 28 29 29 28 29 28 30 27 25 24 23 26 25 24 25 24 23 22 22 28 28 27 25 24 19 15 18 16 16 17 19 22 22 20 18 17 12 12 13 16
30 31 31 30 30 34 29 30 33 32 32 29 26 22 21 22 22 22 22 21 21 19 26 28 27 24 21 16 16 17 18 16 18 21 24 20 18 14 16 13 14 14 14
29 33 36 40 40 36 34 33 34 36 37 34 27 24 23 22 22 21 22 19 23 22 24 27 27 23 18 16 16 18 17 19 20 22 23 14 11 14 14 13 13 14 14
29 31 32 34 38 40 39 36 37 36 30 30 28 30 26 23 23 22 21 23 25 26 24 24 23 23 21 19 18 20 18 19 19 21 16 14 12 15 13 12 10 11 12
35 36 37 38 39 40 40 39 33 29 24 25 27 30 28 24 23 25 24 25 24 26 25 24 22 21 20 20 19 19 20 20 21 21 17 15 15 16 12 9 9 12 14
30 32 33 35 38 34 33 37 30 22 19 19 19 20 22 23 24 24 26 26 22 24 25 25 23 22 21 22 22 22 21 20 20 19 16 16 17 12 10 7 7 11 13
32 33 35 36 37 34 31 27 21 16 19 20 21 22 22 22 21 22 20 21 21 21 22 23 22 22 23 22 21 21 20 19 18 17 16 15 13 10 10 7 8 10 10
30 30 30 32 33 33 30 28 15 14 13 11 10 13 19 19 16 17 17 17 16 21 26 21 19 23 22 22 22 21 21 20 17 16 16 14 11 10 10 8 8 9 7
25 25 24 25 22 18 12 8 14 17 19 20 21 20 18 15 16 14 13 12 14 17 17 17 20 21 23 22 22 21 20 18 17 16 15 13 12 12 11 8 7 7 6
24 24 25 27 23 20 20 20 18 16 15 14 15 15 16 16 17 20 19 19 17 16 15 15 16 17 16 18 21 20 17 16 17 16 13 12 12 12 10 9 7 6 5
23 23 23 23 21 18 16 16 14 15 15 16 15 15 15 17 17 17 17 15 15 16 16 11 16 16 15 12 17 17 14 14 16 17 13 13 12 12 11 10 10 7 6
Wind_Direction
217 216 218 225 284 292 313 281 272 274 279 281 286 289 298 302 296 295 294 295 294 290 287 288 290 292 270 266 265 278 291 288 288 291 291 293 295 298 296 289 288 290 297
213 211 229 270 290 284 283 272 267 269 273 281 288 292 303 299 295 295 297 306 306 298 297 297 293 297 297 295 295 291 289 291 296 301 300 300 301 302 296 291 292 298 300
216 237 267 246 220 261 260 264 269 279 284 288 290 301 300 290 290 291 297 310 308 316 313 297 293 294 291 292 294 292 294 296 299 303 304 307 310 309 304 306 305 303 298
223 187 181 236 264 262 270 275 281 286 291 293 298 301 291 289 293 300 311 308 293 295 294 282 282 292 291 288 291 297 301 307 313 312 311 313 317 316 310 312 311 307 302
187 197 229 248 264 272 286 287 289 291 293 297 296 288 288 291 297 308 305 299 265 269 277 272 282 287 287 293 297 300 306 313 313 314 311 310 313 317 316 315 308 308 304
206 223 248 257 279 297 307 316 300 295 291 294 293 292 289 296 300 311 299 298 292 268 280 273 278 282 287 289 296 306 309 312 312 312 306 306 310 314 313 306 309 312 313
205 232 277 314 318 327 315 302 295 301 292 289 292 297 297 299 306 308 301 303 288 281 279 274 279 280 284 286 289 294 301 308 313 309 301 303 303 303 305 308 310 310 308
233 254 325 328 316 298 295 302 299 292 294 294 292 290 294 300 304 312 295 292 284 280 282 289 282 282 284 285 293 300 307 315 315 309 292 296 298 306 313 309 307 309 311
170 346 328 315 285 294 302 304 300 298 304 306 296 288 296 298 303 307 288 281 283 285 291 295 284 276 280 290 296 302 310 318 316 312 310 311 308 307 316 313 316 315 312
354 324 291 282 298 299 300 301 298 302 307 301 301 293 294 298 305 294 283 288 287 291 298 295 284 280 284 288 296 306 312 317 321 325 325 329 322 322 319 311 313 314 313
307 273 283 290 294 294 299 294 291 287 294 293 292 294 301 304 301 294 281 280 289 289 300 301 291 287 284 294 306 309 312 318 333 329 334 339 324 325 319 312 306 311 321
267 290 294 297 300 294 300 306 311 305 286 292 295 295 304 311 295 289 285 290 290 286 293 298 299 289 286 291 297 303 312 322 331 328 334 330 335 328 327 323 314 304 307
290 291 295 298 296 294 301 309 310 312 288 282 291 295 299 295 286 285 287 293 290 288 288 281 292 296 293 305 293 306 309 315 318 318 323 324 328 321 319 323 319 315 302
299 299 299 299 299 295 298 300 301 308 310 307 291 288 296 288 278 276 290 296 284 284 284 269 283 291 296 302 290 306 301 304 309 311 311 318 320 327 331 333 333 339 335
298 294 292 299 298 300 300 299 302 311 311 305 303 297 294 291 288 293 292 290 283 280 258 261 280 288 290 287 280 292 299 294 298 303 310 313 319 326 337 338 340 346 339
285 286 293 296 301 303 300 305 309 310 310 306 300 294 299 294 294 291 285 282 285 275 272 276 280 282 288 277 272 284 295 291 293 301 306 312 321 322 336 334 331 339 336
295 293 291 290 294 299 296 299 300 306 308 307 306 302 298 302 299 291 283 277 279 277 267 271 274 281 284 267 267 279 290 285 287 302 309 309 314 318 334 333 332 334 338
290 291 294 296 297 294 288 291 294 294 298 304 304 303 298 297 297 290 284 280 269 268 269 271 272 278 274 271 262 267 278 289 292 299 306 303 313 321 326 330 341 336 337
304 304 305 302 298 293 283 283 285 284 290 296 300 305 308 299 297 292 284 270 270 272 277 275 275 272 270 268 274 266 272 283 290 298 297 296 312 312 318 316 343 345 331
310 307 304 301 300 301 299 294 276 286 286 285 292 298 305 307 300 291 289 276 278 274 275 276 275 271 267 264 269 273 275 281 289 294 288 294 304 305 313 312 326 340 341
311 314 312 308 309 305 303 297 277 293 292 298 303 303 304 301 299 296 298 276 284 278 277 277 276 274 268 264 260 263 269 274 283 290 287 290 291 292 293 302 309 321 335
311 305 307 312 312 309 296 286 299 297 302 307 312 313 309 299 297 295 294 292 290 289 284 276 273 271 268 265 262 260 265 267 276 284 285 283 284 286 285 296 290 311 334
330 325 319 311 316 320 295 285 296 308 314 323 329 315 330 322 311 303 302 301 305 303 292 284 284 276 271 265 260 259 261 263 272 281 279 281 275 276 281 285 281 298 330
356 358 352 344 326 322 6 346 320 314 307 303 304 305 303 312 304 308 316 312 307 304 291 293 296 295 286 276 260 257 257 261 261 271 278 270 267 264 267 276 276 296 322
335 334 334 343 348 347 339 336 333 330 327 326 325 324 320 317 301 297 298 295 296 295 290 290 288 281 274 279 271 254 256 257 257 259 266 257 255 253 258 260 263 268 290
344 343 342 339 339 343 343 342 342 332 334 332 331 328 324 320 322 322 319 303 300 290 281 268 280 281 273 261 273 247 251 256 251 251 252 244 247 248 248 248 247 245 260